Torna al catalogo

SL-6 R/B(2)

AttivoHEO
NORAD 12680·ROCKET BODY·🇷🇺 Russia

Lanciato Aug 4, 1981 da Plesetsk Cosmodrome

Loading…

Prossimi Passaggi (prossime 24 ore)

TLE

AggiornatoSource: Space-Track

Epoca: Sep 14, 2026, 06:12 UTC

1 12680U 81071D   26257.25883156 -.00000729  00000-0  00000-0 0  9993
2 12680  66.4736  46.0634 6701529  13.5226 357.8204  1.99245081246520

Traccia SL-6 R/B(2) in tempo reale con AllMySat

Download on the App Store